Home   Weather   Porta Westfalica   Past weeks

Flag for Germany Past Weather in Porta Westfalica, North Rhine-Westphalia, Germany — Yesterday and Last 2 Weeks

45 °F

Partly sunny.

Feels Like: 42 °F
Forecast: 38 / 50 °F
Wind: 5 mph from Northeast

Location: Bueckeburg

Current Time: Oct 22, 2016 at 10:51:33 AM

Latest Report: Oct 22, 2016 at 10:20 AM

Visibility: 4 mi

Pressure: 29.92 "Hg

Humidity: 93%

Dew Point: 43 °F

Location of Porta WestfalicaLocation

Past Weather in Porta Westfalica — Graph


Porta Westfalica Temperature Yesterday

Maximum temperature yesterday: 46 °F (at 2:20 PM)
Minimum temperature yesterday: 41 °F (at 6:20 AM)
Average temperature yesterday: 44 °F

High & Low Weather Summary for the Past Weeks

High63 °F (Oct 16, 3:20 PM)100% (Oct 7, 10:20 PM)30.27 "Hg (Oct 7, 10:20 PM)
Low36 °F (Oct 11, 1:20 AM)59% (Oct 16, 3:20 PM)29.71 "Hg (Oct 15, 5:20 AM)
Average48 °F90%30.07 "Hg
* Reported Oct 7 9:20 AM — Oct 22 9:20 AM, Porta Westfalica, Weather by CustomWeather, © 2016

Note: Actual official high and low records may vary slightly from our data, if they occured in-between our weather recording intervals... More about our weather records


Porta Westfalica Weather History for the Previous 24 Hours

Scroll right to see more
Time TempWeatherWind HumidityBarometerVisibility
9:20 AM
Sat, Oct 22
43 °FFog.5 mph100%29.92 "Hg2 mi
8:20 AM41 °FFog.2 mph100%29.92 "Hg3 mi
7:20 AM41 °FPartly cloudy.3 mph100%29.89 "Hg4 mi
6:46 AM43 °FPassing clouds.5 mph93%29.89 "Hg4 mi
6:20 AM43 °FFog.3 mph93%29.89 "Hg3 mi
5:20 AM43 °FFog.7 mph100%29.89 "Hg2 mi
4:20 AM43 °FFog.6 mph100%29.89 "Hg2 mi
3:20 AM45 °FDrizzle. Fog.7 mph93%29.89 "Hg2 mi
2:56 AM45 °FDrizzle. Fog.8 mph100%29.89 "Hg2 mi
2:20 AM45 °FDrizzle. Fog.5 mph100%29.89 "Hg2 mi
1:20 AM45 °FFog.2 mph100%29.89 "Hg2 mi
12:50 AM45 °FFog.2 mph100%29.89 "Hg2 mi
12:20 AM45 °FFog.2 mph100%29.89 "Hg2 mi
11:20 PM
Fri, Oct 21
45 °FFog.2 mph100%29.89 "Hg3 mi
10:20 PM45 °FFog.2 mph100%29.89 "Hg2 mi
9:54 PM45 °FFog.1 mph100%29.89 "Hg3 mi
9:20 PM45 °FLight rain. Fog.3 mph100%29.89 "Hg2 mi
8:20 PM45 °FLight rain. Fog.3 mph100%29.89 "Hg2 mi
7:47 PM45 °FLight rain. Fog.3 mph100%29.89 "Hg2 mi
7:20 PM46 °FLight rain. Fog.8 mph93%29.89 "Hg1 mi
6:20 PM46 °FLight rain. Fog.8 mph93%29.89 "Hg1 mi
5:20 PM46 °FLight rain. Fog.6 mph93%29.89 "Hg2 mi
4:20 PM46 °FLight rain. Fog.8 mph93%29.89 "Hg2 mi
3:20 PM46 °FDrizzle. Fog.7 mph93%29.89 "Hg2 mi
2:20 PM46 °FDrizzle. Fog.9 mph93%29.92 "Hg2 mi
1:20 PM45 °FLight rain. Fog.9 mph100%29.92 "Hg1 mi
12:20 PM45 °FLight rain. Fog.10 mph93%29.92 "Hg1 mi
11:20 AM45 °FDrizzle. Fog.9 mph93%29.92 "Hg2 mi
10:20 AM43 °FFog.9 mph100%29.92 "Hg2 mi
10:00 AM43 °FDrizzle. Fog.9 mph100%29.92 "Hg1 mi
Weather by CustomWeather, © 2016

See weather overviewHow to use our weather pages